[TLELIST] Archives

 

[list_settings.list_name] Current TLEs

December 3rd 2021 PST

HST 1 20580U 90037B 21336.89991463 .00000983 00000-0 48258-4 0 9999 2 20580 28.4713 30.3616 0002927 78.7523 84.6649 15.09862196536472 ISS (ZARYA) 1 25544U 98067A 21337.49738641 -.00000450 00000-0 00000+0 0 9997 2 25544 51.6389 225.5617 0004535 264.0051 276.0775 15.48792552314838 CXO 1 25867U 99040B 21340.00088295 .00000543 00000-0 00000+0 0 9993 2 25867 50.7214 247.3430 8574630 228.3305 0.0311 0.37806577 22224 ____________________________________________________________________ These 2-Line ...Continue Reading

[list_settings.list_name] Current TLEs

December 2nd 2021 PST

HST 1 20580U 90037B 21336.21666432 .00001079 00000-0 54041-4 0 9994 2 20580 28.4712 34.8837 0002912 72.0694 330.1752 15.09861500536635 ISS (ZARYA) 1 25544U 98067A 21336.00241693 .00004276 00000-0 86543-4 0 9999 2 25544 51.6441 232.9436 0004376 267.2118 212.1875 15.48725640314601 CXO 1 25867U 99040B 21337.35639082 .00000595 00000-0 00000-0 0 9991 2 25867 50.8015 247.4748 8569592 228.3152 359.9471 0.37803711 11079 ____________________________________________________________________ These 2-Line ...Continue Reading

[list_settings.list_name] Current TLEs

December 1st 2021 PST

HST 1 20580U 90037B 21334.91681968 .00000893 00000-0 42829-4 0 9994 2 20580 28.4710 43.4868 0002883 58.8024 104.1312 15.09858313536177 ISS (ZARYA) 1 25544U 98067A 21335.35520000 .00004502 00000-0 90688-4 0 9995 2 25544 51.6443 236.1446 0004335 264.8749 203.6521 15.48720557314502 CXO 1 25867U 99040B 21337.35639082 .00000595 00000-0 00000-0 0 9991 2 25867 50.8015 247.4748 8569592 228.3152 359.9471 0.37803711 11079 ____________________________________________________________________ These 2-Line ...Continue Reading

[list_settings.list_name] Current TLEs

November 30th 2021 PST

HST 1 20580U 90037B 21333.65374191 .00000944 00000-0 45939-4 0 9993 2 20580 28.4709 51.8465 0002846 46.0854 77.7927 15.09856708536252 ISS (ZARYA) 1 25544U 98067A 21334.26436330 .00005004 00000-0 99898-4 0 9996 2 25544 51.6438 241.5382 0004274 259.9657 242.7293 15.48711525314336 CXO 1 25867U 99040B 21337.35639082 .00000595 00000-0 00000+0 0 9990 2 25867 50.8015 247.4748 8569592 228.3152 359.9471 0.37803711 22217 ____________________________________________________________________ These 2-Line ...Continue Reading

[list_settings.list_name] Current TLEs

November 29th 2021 PST

HST 1 20580U 90037B 21332.93388139 .00000858 00000-0 40734-4 0 9992 2 20580 28.4708 56.6109 0002822 38.7452 124.5851 15.09855172535873 ISS (ZARYA) 1 25544U 98067A 21333.29693762 .00005390 00000-0 10701-3 0 9995 2 25544 51.6442 246.3222 0004335 256.4895 248.9212 15.48702607314184 CXO 1 25867U 99040B 21334.71129853 .00000726 00000-0 00000+0 0 9993 2 25867 50.8900 247.6347 8569388 228.2755 359.8094 0.37813647 22206 ____________________________________________________________________ These 2-Line ...Continue Reading

[list_settings.list_name] Current TLEs

November 28th 2021 PST

HST 1 20580U 90037B 21331.60534924 .00000891 00000-0 42734-4 0 9999 2 20580 28.4707 65.4038 0002770 25.2159 102.5928 15.09853624535677 ISS (ZARYA) 1 25544U 98067A 21332.20028385 .00007423 00000-0 14425-3 0 9994 2 25544 51.6434 251.7437 0004420 249.6295 257.5758 15.48695068314011 CXO 1 25867U 99040B 21332.06692914 .00000829 00000-0 00000-0 0 9997 2 25867 51.0065 247.8418 8568330 228.1817 359.8778 0.37812282 11050 ____________________________________________________________________ These 2-Line ...Continue Reading

[list_settings.list_name] Current TLEs

November 27th 2021 PST

HST 1 20580U 90037B 21330.68327719 .00000837 00000-0 39454-4 0 9993 2 20580 28.4705 71.5065 0002735 15.6156 130.3610 15.09852175535536 ISS (ZARYA) 1 25544U 98067A 21331.29513333 .00008189 00000-0 15834-3 0 9999 2 25544 51.6431 256.2199 0004297 247.0590 250.3575 15.48683674313876 CXO 1 25867U 99040B 21332.06692914 .00000829 00000-0 00000-0 0 9997 2 25867 51.0065 247.8418 8568330 228.1817 359.8778 0.37812282 11050 ____________________________________________________________________ These 2-Line ...Continue Reading

[list_settings.list_name] Current TLEs

November 26th 2021 PST

HST 1 20580U 90037B 21329.69101214 .00000739 00000-0 33555-4 0 9999 2 20580 28.4703 78.0739 0002697 5.1218 136.7391 15.09850483535383 ISS (ZARYA) 1 25544U 98067A 21330.32808652 .00024333 00000-0 45322-3 0 9997 2 25544 51.6430 261.0081 0004402 277.7183 224.6231 15.48692151313722 CXO 1 25867U 99040B 21332.06692914 .00000829 00000-0 00000-0 0 9997 2 25867 51.0065 247.8418 8568330 228.1817 359.8778 0.37812282 11050 ____________________________________________________________________ These 2-Line ...Continue Reading

[list_settings.list_name] Current TLEs

November 25th 2021 PST

HST 1 20580U 90037B 21328.76257189 .00000697 00000-0 31026-4 0 9993 2 20580 28.4701 84.2190 0002664 355.2891 130.0659 15.09849244535243 ISS (ZARYA) 1 25544U 98067A 21329.10819444 .00003359 00000-0 69960-4 0 9992 2 25544 51.6439 267.0288 0004319 239.2171 297.5454 15.48639599313535 CXO 1 25867U 99040B 21329.42140916 .00000813 00000-0 00000-0 0 9996 2 25867 51.0907 248.0019 8564901 228.1070 359.8163 0.37806420 11051 ____________________________________________________________________ These 2-Line ...Continue Reading

[list_settings.list_name] Current TLEs

November 24th 2021 PST

HST 1 20580U 90037B 21327.77005844 .00000694 00000-0 30861-4 0 9995 2 20580 28.4699 90.7882 0002625 344.5087 135.3864 15.09848174535094 ISS (ZARYA) 1 25544U 98067A 21328.19951010 .00003407 00000-0 70845-4 0 9994 2 25544 51.6441 271.5215 0004374 235.8745 271.5482 15.48632762313390 CXO 1 25867U 99040B 21326.77653400 .00000721 00000-0 00000+0 0 9995 2 25867 51.1531 248.1302 8561174 228.0511 359.8263 0.37804835 22173 ____________________________________________________________________ These 2-Line ...Continue Reading
  • This mailing list is a public mailing list - anyone may join or leave, at any time.
  • This mailing list is announce-only.

International Space Station (ISS) / Hubble Space Telescope (HST) / Chandra X-Ray Observatory Orbital Data via EMAIL

Privacy Policy:

Private list